Miscellaneous Local Product
Issued by NWS Hastings, NE

Home | Current Version | Previous Version | Graphics & Text | Print | Product List | Glossary On
Versions: 1 2 3 4 5 6 7 8 9 10 11 12 13 14 15 16 17 18 19 20 21 22 23 24 25 26 27 28 29 30 31 32 33 34 35 36 37 38 39 40 41 42 43 44 45 46 47 48 49 50
000
AXUS43 KGID 281902
MISGRI

GID CWA HOURLY WEATHER ROUNDUP
NATIONAL WEATHER SERVICE HASTINGS NE
200 PM CDT MON JUL 28 2014

NOTE: "FAIR" INDICATES FEW OR NO CLOUDS BELOW 12,000 FEET WITH NO
SIGNIFICANT WEATHER AND/OR OBSTRUCTIONS TO VISIBILITY.

...SOUTH CENTRAL NEBRASKA...

CITY           SKY/WX    TMP DP  RH WIND       PRES   REMARKS
GRAND ISLAND   MOSUNNY   75  56  51 N9        30.30F
HASTINGS       MOSUNNY   75  55  49 NE6       30.31F
KEARNEY        CLOUDY    75  55  50 NE8       30.31F
ORD            SUNNY     75  54  47 NW6       30.29F
YORK           MOSUNNY   73  55  53 N6        30.30F
AURORA         MOSUNNY   75  56  52 NE6       30.30F
LEXINGTON      SUNNY     78  57  49 E5        30.30F
HOLDREGE       SUNNY     76  57  52 CALM      30.30F
HEBRON         MOSUNNY   76  53  44 N12       30.28F

...NEBRASKA PANHANDLE...

CITY           SKY/WX    TMP DP  RH WIND       PRES   REMARKS
CHADRON        SUNNY     83  54  36 CALM      30.27F
ALLIANCE       SUNNY     82  54  37 SE10G20   30.30F
SCOTTSBLUFF    SUNNY     82  59  45 E12G17    30.29F
SIDNEY         SUNNY     86  56  35 SE13G20   30.32F

...WESTERN AND NORTH CENTRAL NEBRASKA...

CITY           SKY/WX    TMP DP  RH WIND       PRES   REMARKS
VALENTINE      SUNNY     78  52  40 VRB5      30.30F
AINSWORTH      MOSUNNY   73  53  49 E3        30.31F
ONEILL         MOSUNNY   74  49  41 W5        30.31F
BROKEN BOW     MOSUNNY   77  55  46 CALM      30.30F
IMPERIAL       SUNNY     85  56  37 SE13G20   30.28F
NORTH PLATTE   SUNNY     81  56  42 E13       30.29F
MCCOOK         SUNNY     84  57  39 E12G17    30.28F

...EASTERN NEBRASKA...

CITY           SKY/WX    TMP DP  RH WIND       PRES   REMARKS
NORFOLK        PTSUNNY   75  53  46 NW9       30.28F
SO SIOUX CITY  PTSUNNY   75  58  55 NW7       30.24F
TEKAMAH        PTSUNNY   75  57  53 NW7       30.24F
ALBION         PTSUNNY   72  55  53 N7        30.30F
OMAHA EPPLEY   MOSUNNY   77  55  46 NW10      30.24F
OFFUTT AFB     SUNNY     76  58  51 CALM      30.24F
MILLARD        PTSUNNY   75  57  53 NW9       30.25F
LINCOLN        PTSUNNY   78  53  41 N8        30.27F
NEBRASKA CITY  PTSUNNY   73  55  51 N5        30.26S
BEATRICE       MOSUNNY   76  57  51 NW10G17   30.27S
FALLS CITY     PTSUNNY   77  59  53 N8        30.23F

...NORTHERN KANSAS...

CITY           SKY/WX    TMP DP  RH WIND       PRES   REMARKS
GOODLAND       SUNNY    N/A N/A N/A MISG      30.31F
HILL CITY      SUNNY     84  57  39 VRB7      30.27F
NORTON         CLEAR     84  50  30 S6        30.27F
PHILLIPSBURG   SUNNY     81  54  39 CALM      30.28F
SMITH CENTER   SUNNY     81  54  39 CALM      30.28F
HAYS           SUNNY     82  57  42 SE3       30.27F
RUSSELL        SUNNY     81  58  45 VRB3      30.26F
CONCORDIA      SUNNY     80  58  46 NW9       30.26F
SALINA         SUNNY     85  55  35 NW8G18    30.25F
TOPEKA         MOSUNNY   82  57  42 N10G16    30.22F



USA.gov is the U.S. government's official web portal to all federal, state and local government web resources and services.